Location: Clermont
(50.2608°N, 4.3172°E)
Time: 21:49:35
(UTC+00:00)

Cosmos 1666 - Pass Details

Date: 13 August 2020
Orbit: 498 x 519 km, 82.5° (Epoch: 21 September)

Event Time Altitude Azimuth Distance (km) Brightness Sun altitude
Exits shadow 21:12:13 22° 85° (E) 1,137 4.1 -17.0°
Drops below altitude 10° 21:15:01 10° 37° (NE) 1,725 5.5 -17.3°
Sets 21:17:28 0° 22° (NNE) 2,620 6.7 -17.5°
